Flag for Austria

Past Weather in Bruck an der Leitha, Lower Austria, Austria — Yesterday and Last 2 Weeks

Now
53 °F

Light rain. Overcast.


Feels Like: 51 °F
Forecast: 62 / 52 °F
Wind: 7 mph from Northwest

Location: Wien / Schwechat-Flughafen
Current Time: Sep 29, 2020 at 11:47:25 pm
Latest Report: Sep 29, 2020 at 10:00 pm
Visibility: 9 mi
Pressure30.02 "Hg
Humidity: 90%
Dew Point: 50 °F
Location of Bruck an der LeithaLocation

Past Weather in Bruck an der Leitha — Graph

°F

Bruck an der Leitha Temperature Yesterday

Maximum temperature yesterday: 53 °F (at 7:00 pm)
Minimum temperature yesterday: 49 °F (at 6:00 am)
Average temperature yesterday: 51 °F

High & Low Weather Summary for the Past Weeks

 TemperatureHumidityPressure
High82 °F (Sep 15, 4:00 pm)94% (Sep 25, 10:00 am)30.35 "Hg (Sep 25, 10:00 am)
Low42 °F (Sep 27, 8:00 am)34% (Sep 18, 3:00 pm)29.35 "Hg (Sep 26, 6:00 am)
Average61 °F68%29.93 "Hg
* Reported Sep 14 10:00 pm — Sep 29 10:00 pm, Bruck an der Leitha. Weather by CustomWeather, © 2020

Note: Actual official high and low records may vary slightly from our data, if they occured in-between our weather recording intervals... More about our weather records

Bruck an der Leitha Weather History for the Previous 24 Hours

Scroll right to see more
 ConditionsComfort  
Time TempWeatherWind HumidityBarometerVisibility
10:00 pm
Tue, Sep 29
53 °FLight rain. Overcast.7 mph90%30.02 "Hg9 mi
9:00 pm54 °FLight rain. Overcast.7 mph87%30.02 "Hg4 mi
8:00 pm56 °FOvercast.8 mph74%30.01 "Hg31 mi
7:00 pm56 °FOvercast.7 mph76%30.00 "Hg31 mi
6:00 pm55 °FOvercast.6 mph78%30.01 "Hg28 mi
4:00 pm56 °FLight rain. Overcast.8 mph70%29.99 "Hg34 mi
3:00 pm57 °FOvercast.8 mph69%29.99 "Hg34 mi
1:00 pm57 °FOvercast.8 mph67%29.98 "Hg34 mi
12:00 pm56 °FOvercast.8 mph69%29.98 "Hg37 mi
11:00 am55 °FOvercast.9 mph68%29.99 "Hg40 mi
10:00 am54 °FOvercast.8 mph70%29.98 "Hg34 mi
9:00 am54 °FOvercast.7 mph72%29.98 "Hg37 mi
8:00 am52 °FOvercast.7 mph75%29.97 "Hg34 mi
7:00 am51 °FOvercast.6 mph79%29.96 "Hg34 mi
6:00 am51 °FPassing clouds.7 mph80%29.95 "Hg31 mi
4:00 am51 °FOvercast.5 mph82%29.94 "Hg28 mi
2:00 am51 °FOvercast.5 mph83%29.93 "Hg34 mi
1:00 am52 °FOvercast.5 mph82%29.93 "Hg40 mi
12:00 am52 °FOvercast.7 mph83%29.94 "Hg31 mi
11:00 pm
Mon, Sep 28
52 °FOvercast.6 mph85%29.92 "Hg37 mi
Weather by CustomWeather, © 2020

See weather overview